STARLINK-4445, 53474

Orbit data source: Space-Track

STARLINK-4445, 53474 is a payload satellite owned by SpaceX/Seattle (US) in SSO that was launched on Fri, 12 Aug 2022 UTC via an FALCON 9 launch vehicle from the Air Force Western Test Range (AFWTR). Payload-class satellites include a variety of spacecraft equipped with specific instruments for various scientific and technological missions. These include communications satellites like Starlink; space stations such as the ISS; scientific satellites like the Hubble; Earth observation satellites from companies like Planet Labs, Umbra, and HawkEye 360; GPS; miniature CubeSats for education and research; and military/defense satellites.

Loading next visibility...
Identifier
53474, 2022-099K
Orbit
SSO
Country
Flag of USUS
Related business
Manufacturer
SpaceX/Seattle
Mission
Operational Commercial Communications
Bus & Motor
STARLINK, Unknown motor
Mass
300 kg wet, ~275 kg dry
Launch date (UTC)
2022-08-12 (3 years ago)
Launch vehicle
FALCON 9
Launch site
Air Force Western Test Range (AFWTR)
Object type
Payload
Rocket body
Debris
Shape & HBR
Box + 1 Pan, 10.1 m
Radar Cross Section
13.562 m², Large (>1 m²)

Expand to show TLE details & history
Last TLE update: 17 hours ago

TLE from 17 hours ago
0 STARLINK-4445
1 53474U 22099K   25346.92431556  .00000381  00000-0  34225-4 0  9992
2 53474  97.6018 105.2705 0001919  74.3813 285.7623 15.01259171182963
Epoch: 2025-12-12T22:11Z
TLE epoch observation values (Epoch: 2025-12-12T22:11:00.864Z)
Latitude
-0.00003°
Longitude
50.65794°
Altitude
565.71 km
Speed
7.579 km/s
True Right ascension
07h 01m 04s
True Declination
0° 00' 00"
Sunlit
Object was in full shadow at epoch
Visualization orbit readout
Latitude
Unknown
Longitude
Unknown
Altitude
Unknown
Speed
Unknown
Apparent Right ascension
Unknown
Apparent Declination
Unknown
Sunlit
N/A
Visualization observer readout
Local Sidereal Time
13:12:22
Azimuth
Unknown
Elevation
Unknown
Doppler factor
Unknown
Orbital elements
Apogee altitude
561.343 km
Perigee altitude
558.68 km
Semi-major axis
6,938.149 km
Eccentricity
0.00019
Inclination
97.6018°
RAAN
105.2705°
Arg. of periapsis
74.3813°
True anomaly
285.74114°
Mean anomaly
285.7623°
Eccentric anomaly
285.75172°
Mean motion
3.75559 °/min
Orbital period
95.86 mins
BSTAR
0.000034225
Loading maneuver chart data...
Computing Atmospheric mass density...
Loading historical data...
Loading historical data...
Loading historical data...
Loading historical data...
Loading historical data...
Loading historical data...
Loading historical data...

Documentation

Showing up to 5 results
|